Location: Slanting_Bridge
(35.6330°N, 80.9830°W)
Time: 21:54:20
(UTC-04:00)

Hamsat - Visible Passes

Search period start: 31 October 2014 00:00
Search period end: 09 November 2014 23:00
Orbit: 592 x 629 km, 97.6° (Epoch: 31 October)

Date Brightness Start Highest point End Pass type
(mag) Time Alt. Az. Time Alt. Az. Time Alt. Az.
31 Oct ? 06:14:40 10° NE 06:17:27 17° E 06:20:14 10° SE visible
01 Nov ? 06:28:18 10° NE 06:31:48 25° E 06:35:19 10° SSE visible
01 Nov ? 18:53:50 10° S 18:57:50 44° W 19:01:51 10° NNW visible
02 Nov ? 05:42:11 10° NNE 05:46:07 36° E 05:50:04 10° SSE visible
02 Nov ? 18:08:28 10° SSW 18:12:08 30° W 18:15:49 10° NW visible
03 Nov ? 05:56:14 10° NNE 06:00:24 55° E 06:04:35 10° S visible
03 Nov ? 18:23:20 10° SW 18:26:27 20° W 18:29:34 10° NW visible
04 Nov ? 06:10:23 10° NNE 06:14:39 84° ESE 06:18:56 10° S visible
04 Nov ? 18:38:39 10° SW 18:40:47 14° W 18:42:56 10° WNW visible
06 Nov ? 05:04:53 10° ENE 05:06:56 13° E 05:09:00 10° ESE visible
07 Nov ? 05:18:09 10° NE 05:21:16 20° E 05:24:23 10° SE visible
07 Nov ? 17:43:11 10° S 17:47:17 60° W 17:51:25 10° NNW visible
08 Nov ? 05:31:51 10° NE 05:35:33 28° E 05:39:16 10° SSE visible
08 Nov ? 17:57:37 10° SSW 18:01:31 39° W 18:05:26 10° NNW visible
09 Nov ? 05:45:44 10° NNE 05:49:48 42° E 05:53:53 10° S visible
09 Nov ? 18:12:16 10° SSW 18:15:46 26° W 18:19:18 10° NW visible
